Regional Weather Roundup
Issued by NWS

Home | Current Version | Previous Version | Text Only | Print | Product List | Glossary Off
Versions: 1 2 3 4 5 6 7 8 9 10 11 12 13 14 15 16 17 18 19 20 21 22 23 24 25 26 27 28 29 30 31 32 33 34 35 36 37 38 39 40 41 42 43 44 45 46 47 48 49 50

000
ASUS43 KFSD 171402
RWRSD

WEATHER ROUNDUP FOR SOUTH DAKOTA
NATIONAL WEATHER SERVICE SIOUX FALLS SD
800 AM CST SUN DEC 17 2017

NOTE: "FAIR" INDICATES FEW OR NO CLOUDS BELOW 12,000 FEET WITH NO
SIGNIFICANT WEATHER AND/OR OBSTRUCTIONS TO VISIBILITY.


SDZ001>005-009-010-012>017-171500-
NORTHWEST AND NORTH CENTRAL SOUTH DAKOTA

CITY           SKY/WX    TMP DP  RH WIND       PRES   REMARKS
BUFFALO          N/A     27  21  78 CALM      29.90F
FAITH            N/A     26  24  92 SW3       30.02R
MOBRIDGE       CLOUDY    26  23  88 CALM      30.02R
$$

SDZ012>016-024>037-041>051-057-063-072>074-171500-
SOUTHWEST AND SOUTH CENTRAL SOUTH DAKOTA

CITY           SKY/WX    TMP DP  RH WIND       PRES   REMARKS
RAPID CTY ARPT CLOUDY    29  26  89 S5        30.01S WCI  24
PIERRE         CLOUDY    31  29  92 NW3       30.04S
CUSTER         CLOUDY    23  20  88 SW6       29.93R WCI  16
ELLSWORTH AFB  CLOUDY    29  29 100 S3        30.00S
PHILIP         CLOUDY    31  28  89 CALM      30.05R
PINE RIDGE     CLOUDY    30  29  96 CALM      30.03R
SPEARFISH      CLOUDY    27  25  93 CALM      29.97S
WINNER         CLOUDY    33  31  92 CALM      30.05S
$$

SDZ004>011-016>023-039-040-171500-
NORTHEAST SOUTH DAKOTA

CITY           SKY/WX    TMP DP  RH WIND       PRES   REMARKS
ABERDEEN       CLOUDY    26  26 100 CALM      30.05S
WATERTOWN      CLOUDY    28  28 100 SE3       30.02S
BROOKINGS      CLOUDY    26  25  96 CALM      30.05R
SISSETON         N/A     28  27  96 CALM      30.04S
$$

SDZ017-020-022-023-036>040-048>070-171500-
SOUTHEAST SOUTH DAKOTA

CITY           SKY/WX    TMP DP  RH WIND       PRES   REMARKS
SIOUX FALLS    CLOUDY    23  22  96 NE5       30.04F FOG     WCI  17
HURON          MOCLDY    29  29 100 MISG      30.05F FOG
CHAMBERLAIN    CLOUDY    31  31 100 CALM      30.05F
MITCHELL       CLOUDY    30  28  92 CALM      30.07F
YANKTON        CLOUDY    23  22  96 NW8       30.05F FOG     WCI  14
$$

ABBREVIATIONS USED IN REMARKS
   TC - TEMPERATURE IN CELSIUS
  WCI - WIND CHILL INDEX
   HX - HEAT INDEX
  VSB - VISIBILITY





USA.gov is the U.S. government's official web portal to all federal, state and local government web resources and services.